Time,TemperatureF,DewpointF,PressureIn,WindDirection,WindDirectionDegrees,WindSpeedMPH,WindSpeedGustMPH,Humidity,HourlyPrecipIn,Conditions,Clouds,dailyrainin,SoftwareType,DateUTC
2013-03-11 00:04:00,39.0,-99.9,-100.00,West,261,7.0,-999.0,-999,0.00,,,0.78,,2013-03-11 05:04:00,
2013-03-11 00:12:00,39.0,-99.9,-100.00,West,261,7.0,-999.0,-999,0.00,,,0.78,,2013-03-11 05:12:00,
2013-03-11 00:22:00,39.0,-99.9,-100.00,West,261,7.0,-999.0,-999,0.00,,,0.78,,2013-03-11 05:22:00,
2013-03-11 00:32:00,39.0,-99.9,-100.00,WSW,245,9.0,-999.0,-999,0.00,,,0.78,,2013-03-11 05:32:00,
2013-03-11 00:43:00,39.0,-99.9,-100.00,WSW,245,9.0,-999.0,-999,0.00,,,0.78,,2013-03-11 05:43:00,
2013-03-11 00:52:00,39.0,-99.9,-100.00,WSW,245,9.0,-999.0,-999,0.00,,,0.78,,2013-03-11 05:52:00,
2013-03-11 01:00:00,37.0,-99.9,-100.00,WSW,241,11.0,-999.0,-999,0.00,,,0.66,,2013-03-11 06:00:00,
2013-03-11 01:02:00,38.0,-99.9,-100.00,WSW,253,8.0,-999.0,-999,0.00,,,0.75,,2013-03-11 06:02:00,
2013-03-11 01:12:00,38.0,-99.9,-100.00,WSW,253,8.0,-999.0,-999,0.00,,,0.75,,2013-03-11 06:12:00,
2013-03-11 01:22:00,38.0,-99.9,-100.00,WSW,253,8.0,-999.0,-999,0.00,,,0.75,,2013-03-11 06:22:00,
2013-03-11 01:33:00,37.0,-99.9,-100.00,WSW,241,11.0,-999.0,-999,0.00,,,0.66,,2013-03-11 06:33:00,
2013-03-11 01:42:00,37.0,-99.9,-100.00,WSW,241,11.0,-999.0,-999,0.00,,,0.66,,2013-03-11 06:42:00,
2013-03-11 01:53:00,37.0,-99.9,-100.00,WSW,241,11.0,-999.0,-999,0.00,,,0.66,,2013-03-11 06:53:00,
2013-03-11 02:33:00,36.0,-99.9,-100.00,WSW,245,6.0,-999.0,-999,0.00,,,0.62,,2013-03-11 07:33:00,
2013-03-11 02:42:00,36.0,-99.9,-100.00,WSW,245,6.0,-999.0,-999,0.00,,,0.62,,2013-03-11 07:42:00,
2013-03-11 02:52:00,36.0,-99.9,-100.00,WSW,245,6.0,-999.0,-999,0.00,,,0.62,,2013-03-11 07:52:00,
2013-03-11 03:02:00,35.0,-99.9,-100.00,WSW,253,9.0,-999.0,-999,0.00,,,0.60,,2013-03-11 08:02:00,
2013-03-11 03:12:00,35.0,-99.9,-100.00,WSW,253,9.0,-999.0,-999,0.00,,,0.60,,2013-03-11 08:12:00,
2013-03-11 03:23:00,35.0,-99.9,-100.00,WSW,253,9.0,-999.0,-999,0.00,,,0.60,,2013-03-11 08:23:00,
2013-03-11 03:33:00,35.0,-99.9,-100.00,WSW,247,8.0,-999.0,-999,0.00,,,0.50,,2013-03-11 08:33:00,
2013-03-11 03:42:00,35.0,-99.9,-100.00,WSW,247,8.0,-999.0,-999,0.00,,,0.50,,2013-03-11 08:42:00,
2013-03-11 03:52:00,35.0,-99.9,-100.00,WSW,247,8.0,-999.0,-999,0.00,,,0.50,,2013-03-11 08:52:00,
2013-03-11 04:02:00,35.0,-99.9,-100.00,WSW,249,9.0,-999.0,-999,0.00,,,0.43,,2013-03-11 09:02:00,
2013-03-11 04:12:00,35.0,-99.9,-100.00,WSW,249,9.0,-999.0,-999,0.00,,,0.43,,2013-03-11 09:12:00,
2013-03-11 04:23:00,35.0,-99.9,-100.00,WSW,249,9.0,-999.0,-999,0.00,,,0.43,,2013-03-11 09:23:00,
2013-03-11 04:32:00,34.0,-99.9,-100.00,WSW,251,7.0,-999.0,-999,0.00,,,0.41,,2013-03-11 09:32:00,
2013-03-11 04:42:00,34.0,-99.9,-100.00,WSW,251,7.0,-999.0,-999,0.00,,,0.41,,2013-03-11 09:42:00,
2013-03-11 04:53:00,34.0,-99.9,-100.00,WSW,251,7.0,-999.0,-999,0.00,,,0.41,,2013-03-11 09:53:00,
2013-03-11 05:03:00,34.0,-99.9,-100.00,WSW,239,7.0,-999.0,-999,0.00,,,0.40,,2013-03-11 10:03:00,
2013-03-11 05:12:00,34.0,-99.9,-100.00,WSW,239,7.0,-999.0,-999,0.00,,,0.40,,2013-03-11 10:12:00,
2013-03-11 05:22:00,34.0,-99.9,-100.00,WSW,239,7.0,-999.0,-999,0.00,,,0.40,,2013-03-11 10:22:00,
2013-03-11 05:33:00,34.0,-99.9,-100.00,WSW,241,8.0,-999.0,-999,0.00,,,0.40,,2013-03-11 10:33:00,
2013-03-11 05:42:00,34.0,-99.9,-100.00,WSW,241,8.0,-999.0,-999,0.00,,,0.40,,2013-03-11 10:42:00,
2013-03-11 05:53:00,34.0,-99.9,-100.00,WSW,241,8.0,-999.0,-999,0.00,,,0.40,,2013-03-11 10:53:00,
2013-03-11 06:03:00,34.0,-99.9,-100.00,SW,233,10.0,-999.0,-999,0.00,,,0.40,,2013-03-11 11:03:00,
2013-03-11 06:13:00,34.0,-99.9,-100.00,SW,233,10.0,-999.0,-999,0.00,,,0.40,,2013-03-11 11:13:00,
2013-03-11 06:23:00,34.0,-99.9,-100.00,SW,233,10.0,-999.0,-999,0.00,,,0.40,,2013-03-11 11:23:00,
2013-03-11 06:33:00,34.0,-99.9,-100.00,WSW,239,12.0,-999.0,-999,0.00,,,0.40,,2013-03-11 11:33:00,
2013-03-11 06:43:00,34.0,-99.9,-100.00,WSW,239,12.0,-999.0,-999,0.00,,,0.40,,2013-03-11 11:43:00,
2013-03-11 06:53:00,34.0,-99.9,-100.00,WSW,239,12.0,-999.0,-999,0.00,,,0.40,,2013-03-11 11:53:00,
2013-03-11 07:02:00,34.0,-99.9,-100.00,WSW,250,12.0,-999.0,-999,0.00,,,0.40,,2013-03-11 12:02:00,
2013-03-11 07:12:00,34.0,-99.9,-100.00,WSW,250,12.0,-999.0,-999,0.00,,,0.40,,2013-03-11 12:12:00,
2013-03-11 07:23:00,34.0,-99.9,-100.00,WSW,250,12.0,-999.0,-999,0.00,,,0.40,,2013-03-11 12:23:00,
2013-03-11 07:33:00,34.0,-99.9,-100.00,West,264,8.0,-999.0,-999,0.00,,,0.40,,2013-03-11 12:33:00,
2013-03-11 07:43:00,34.0,-99.9,-100.00,West,264,8.0,-999.0,-999,0.00,,,0.40,,2013-03-11 12:43:00,
2013-03-11 07:53:00,34.0,-99.9,-100.00,West,264,8.0,-999.0,-999,0.00,,,0.40,,2013-03-11 12:53:00,
2013-03-11 08:03:00,33.0,-99.9,-100.00,West,272,9.0,-999.0,-999,0.00,,,0.40,,2013-03-11 13:03:00,
2013-03-11 08:13:00,33.0,-99.9,-100.00,West,272,9.0,-999.0,-999,0.00,,,0.40,,2013-03-11 13:13:00,
2013-03-11 08:23:00,33.0,-99.9,-100.00,West,272,9.0,-999.0,-999,0.00,,,0.40,,2013-03-11 13:23:00,
2013-03-11 08:33:00,33.0,-99.9,-100.00,West,263,10.0,-999.0,-999,0.00,,,0.38,,2013-03-11 13:33:00,
2013-03-11 08:43:00,33.0,-99.9,-100.00,West,263,10.0,-999.0,-999,0.00,,,0.38,,2013-03-11 13:43:00,
2013-03-11 08:53:00,33.0,-99.9,-100.00,West,263,10.0,-999.0,-999,0.00,,,0.38,,2013-03-11 13:53:00,
2013-03-11 09:00:00,33.0,-99.9,-100.00,West,270,11.0,-999.0,-999,0.00,,,0.38,,2013-03-11 14:00:00,
2013-03-11 09:02:00,33.0,-99.9,-100.00,West,270,8.0,-999.0,-999,0.00,,,0.38,,2013-03-11 14:02:00,
2013-03-11 09:13:00,33.0,-99.9,-100.00,West,270,8.0,-999.0,-999,0.00,,,0.38,,2013-03-11 14:13:00,
2013-03-11 09:23:00,33.0,-99.9,-100.00,West,270,8.0,-999.0,-999,0.00,,,0.38,,2013-03-11 14:23:00,
2013-03-11 09:33:00,33.0,-99.9,-100.00,West,270,11.0,-999.0,-999,0.00,,,0.38,,2013-03-11 14:33:00,
2013-03-11 09:43:00,33.0,-99.9,-100.00,West,270,11.0,-999.0,-999,0.00,,,0.38,,2013-03-11 14:43:00,
2013-03-11 09:53:00,33.0,-99.9,-100.00,West,270,11.0,-999.0,-999,0.00,,,0.38,,2013-03-11 14:53:00,
2013-03-11 10:13:00,32.0,-99.9,-100.00,West,265,10.0,-999.0,-999,0.00,,,0.37,,2013-03-11 15:13:00,
2013-03-11 10:23:00,32.0,-99.9,-100.00,West,265,10.0,-999.0,-999,0.00,,,0.37,,2013-03-11 15:23:00,
2013-03-11 10:33:00,32.0,-99.9,-100.00,West,269,8.0,-999.0,-999,0.00,,,0.35,,2013-03-11 15:33:00,
2013-03-11 10:43:00,32.0,-99.9,-100.00,West,269,8.0,-999.0,-999,0.00,,,0.35,,2013-03-11 15:43:00,
2013-03-11 10:54:00,32.0,-99.9,-100.00,West,269,8.0,-999.0,-999,0.00,,,0.35,,2013-03-11 15:54:00,
2013-03-11 11:03:00,32.0,-99.9,-100.00,West,269,9.0,-999.0,-999,0.00,,,0.35,,2013-03-11 16:03:00,
2013-03-11 11:13:00,32.0,-99.9,-100.00,West,269,9.0,-999.0,-999,0.00,,,0.35,,2013-03-11 16:13:00,
2013-03-11 11:23:00,32.0,-99.9,-100.00,West,269,9.0,-999.0,-999,0.00,,,0.35,,2013-03-11 16:23:00,
2013-03-11 11:33:00,32.0,-99.9,-100.00,West,279,10.0,-999.0,-999,0.00,,,0.34,,2013-03-11 16:33:00,
2013-03-11 11:43:00,32.0,-99.9,-100.00,West,279,10.0,-999.0,-999,0.00,,,0.34,,2013-03-11 16:43:00,
2013-03-11 11:53:00,32.0,-99.9,-100.00,West,279,10.0,-999.0,-999,0.00,,,0.34,,2013-03-11 16:53:00,
2013-03-11 12:03:00,32.0,-99.9,-100.00,West,276,9.0,-999.0,-999,0.00,,,-99.99,,2013-03-11 17:03:00,
2013-03-11 12:18:00,32.0,-99.9,-100.00,West,276,9.0,-999.0,-999,0.00,,,-99.99,,2013-03-11 17:18:00,
2013-03-11 12:29:00,32.0,-99.9,-100.00,West,276,9.0,-999.0,-999,0.00,,,-99.99,,2013-03-11 17:29:00,
2013-03-11 12:39:00,32.0,-99.9,-100.00,WNW,284,8.0,-999.0,-999,0.00,,,0.24,,2013-03-11 17:39:00,
2013-03-11 12:53:00,32.0,-99.9,-100.00,WNW,284,8.0,-999.0,-999,0.00,,,0.24,,2013-03-11 17:53:00,
2013-03-11 13:03:00,32.0,-99.9,-100.00,West,279,9.0,-999.0,-999,0.00,,,0.21,,2013-03-11 18:03:00,
2013-03-11 13:12:00,32.0,-99.9,-100.00,West,279,9.0,-999.0,-999,0.00,,,0.21,,2013-03-11 18:12:00,
2013-03-11 13:23:00,32.0,-99.9,-100.00,West,279,9.0,-999.0,-999,0.00,,,0.21,,2013-03-11 18:23:00,
2013-03-11 13:33:00,32.0,-99.9,-100.00,WNW,284,9.0,-999.0,-999,0.00,,,0.16,,2013-03-11 18:33:00,
2013-03-11 13:43:00,32.0,-99.9,-100.00,WNW,284,9.0,-999.0,-999,0.00,,,0.16,,2013-03-11 18:43:00,
2013-03-11 13:53:00,32.0,-99.9,-100.00,WNW,284,9.0,-999.0,-999,0.00,,,0.16,,2013-03-11 18:53:00,
2013-03-11 14:02:00,33.0,-99.9,-100.00,WNW,282,8.0,-999.0,-999,0.00,,,0.14,,2013-03-11 19:02:00,
2013-03-11 14:13:00,33.0,-99.9,-100.00,WNW,282,8.0,-999.0,-999,0.00,,,0.14,,2013-03-11 19:13:00,
2013-03-11 14:23:00,33.0,-99.9,-100.00,WNW,282,8.0,-999.0,-999,0.00,,,0.14,,2013-03-11 19:23:00,
2013-03-11 14:33:00,33.0,-99.9,-100.00,WNW,282,9.0,-999.0,-999,0.00,,,0.11,,2013-03-11 19:33:00,
2013-03-11 14:43:00,33.0,-99.9,-100.00,WNW,282,9.0,-999.0,-999,0.00,,,0.11,,2013-03-11 19:43:00,
2013-03-11 14:53:00,33.0,-99.9,-100.00,WNW,282,9.0,-999.0,-999,0.00,,,0.11,,2013-03-11 19:53:00,
2013-03-11 15:03:00,34.0,-99.9,-100.00,WNW,292,11.0,-999.0,-999,0.00,,,0.08,,2013-03-11 20:03:00,
2013-03-11 15:13:00,34.0,-99.9,-100.00,WNW,292,11.0,-999.0,-999,0.00,,,0.08,,2013-03-11 20:13:00,
2013-03-11 15:23:00,34.0,-99.9,-100.00,WNW,292,11.0,-999.0,-999,0.00,,,0.08,,2013-03-11 20:23:00,
2013-03-11 15:33:00,34.0,-99.9,-100.00,West,275,10.0,-999.0,-999,0.00,,,0.08,,2013-03-11 20:33:00,
2013-03-11 15:44:00,34.0,-99.9,-100.00,West,275,10.0,-999.0,-999,0.00,,,0.08,,2013-03-11 20:44:00,
2013-03-11 15:53:00,34.0,-99.9,-100.00,West,275,10.0,-999.0,-999,0.00,,,0.08,,2013-03-11 20:53:00,
2013-03-11 16:03:00,35.0,-99.9,-100.00,WNW,296,12.0,-999.0,-999,0.00,,,0.07,,2013-03-11 21:03:00,
2013-03-11 16:13:00,35.0,-99.9,-100.00,WNW,296,12.0,-999.0,-999,0.00,,,0.07,,2013-03-11 21:13:00,
2013-03-11 16:23:00,35.0,-99.9,-100.00,WNW,296,12.0,-999.0,-999,0.00,,,0.07,,2013-03-11 21:23:00,
2013-03-11 16:33:00,35.0,-99.9,-100.00,WNW,289,9.0,-999.0,-999,0.00,,,0.03,,2013-03-11 21:33:00,
2013-03-11 16:44:00,35.0,-99.9,-100.00,WNW,289,9.0,-999.0,-999,0.00,,,0.03,,2013-03-11 21:44:00,
2013-03-11 16:54:00,35.0,-99.9,-100.00,WNW,289,9.0,-999.0,-999,0.00,,,0.03,,2013-03-11 21:54:00,
2013-03-11 17:03:00,35.0,-99.9,-100.00,WNW,297,11.0,-999.0,-999,0.00,,,0.01,,2013-03-11 22:03:00,
2013-03-11 17:13:00,35.0,-99.9,-100.00,WNW,297,11.0,-999.0,-999,0.00,,,0.01,,2013-03-11 22:13:00,
2013-03-11 17:23:00,35.0,-99.9,-100.00,WNW,297,11.0,-999.0,-999,0.00,,,0.01,,2013-03-11 22:23:00,
2013-03-11 17:33:00,35.0,-99.9,-100.00,WNW,290,8.0,-999.0,-999,0.00,,,0.00,,2013-03-11 22:33:00,
2013-03-11 17:44:00,35.0,-99.9,-100.00,WNW,290,8.0,-999.0,-999,0.00,,,0.00,,2013-03-11 22:44:00,
2013-03-11 17:54:00,35.0,-99.9,-100.00,WNW,290,8.0,-999.0,-999,0.00,,,0.00,,2013-03-11 22:54:00,
2013-03-11 18:04:00,35.0,-99.9,-100.00,WNW,291,7.0,-999.0,-999,0.00,,,0.00,,2013-03-11 23:04:00,
2013-03-11 18:12:00,35.0,-99.9,-100.00,WNW,291,7.0,-999.0,-999,0.00,,,0.00,,2013-03-11 23:12:00,
2013-03-11 18:22:00,35.0,-99.9,-100.00,WNW,291,7.0,-999.0,-999,0.00,,,0.00,,2013-03-11 23:22:00,
2013-03-11 18:33:00,35.0,-99.9,-100.00,WNW,287,9.0,-999.0,-999,0.00,,,0.00,,2013-03-11 23:33:00,
2013-03-11 18:44:00,35.0,-99.9,-100.00,WNW,287,9.0,-999.0,-999,0.00,,,0.00,,2013-03-11 23:44:00,
2013-03-11 18:54:00,35.0,-99.9,-100.00,WNW,287,9.0,-999.0,-999,0.00,,,0.00,,2013-03-11 23:54:00,
2013-03-11 19:02:00,34.0,-99.9,-100.00,WNW,282,5.0,-999.0,-999,0.00,,,0.00,,2013-03-12 00:02:00,
2013-03-11 19:13:00,34.0,-99.9,-100.00,WNW,282,5.0,-999.0,-999,0.00,,,0.00,,2013-03-12 00:13:00,
2013-03-11 19:23:00,34.0,-99.9,-100.00,WNW,282,5.0,-999.0,-999,0.00,,,0.00,,2013-03-12 00:23:00,
2013-03-11 19:33:00,34.0,-99.9,-100.00,WNW,287,4.0,-999.0,-999,0.00,,,0.00,,2013-03-12 00:33:00,
2013-03-11 19:43:00,34.0,-99.9,-100.00,WNW,287,4.0,-999.0,-999,0.00,,,0.00,,2013-03-12 00:43:00,
2013-03-11 19:54:00,34.0,-99.9,-100.00,WNW,287,4.0,-999.0,-999,0.00,,,0.00,,2013-03-12 00:54:00,
2013-03-11 20:03:00,34.0,-99.9,-100.00,WNW,283,7.0,-999.0,-999,0.00,,,0.00,,2013-03-12 01:03:00,
2013-03-11 20:12:00,34.0,-99.9,-100.00,WNW,283,7.0,-999.0,-999,0.00,,,0.00,,2013-03-12 01:12:00,
2013-03-11 20:22:00,34.0,-99.9,-100.00,WNW,283,7.0,-999.0,-999,0.00,,,0.00,,2013-03-12 01:22:00,
2013-03-11 20:33:00,34.0,-99.9,-100.00,WNW,301,7.0,-999.0,-999,0.00,,,0.00,,2013-03-12 01:33:00,
2013-03-11 20:43:00,34.0,-99.9,-100.00,WNW,301,7.0,-999.0,-999,0.00,,,0.00,,2013-03-12 01:43:00,
2013-03-11 20:53:00,34.0,-99.9,-100.00,WNW,301,7.0,-999.0,-999,0.00,,,0.00,,2013-03-12 01:53:00,
2013-03-11 21:02:00,34.0,-99.9,-100.00,WNW,293,4.0,-999.0,-999,0.00,,,0.00,,2013-03-12 02:02:00,
2013-03-11 21:13:00,34.0,-99.9,-100.00,WNW,293,4.0,-999.0,-999,0.00,,,0.00,,2013-03-12 02:13:00,
2013-03-11 21:22:00,34.0,-99.9,-100.00,WNW,293,4.0,-999.0,-999,0.00,,,0.00,,2013-03-12 02:22:00,
2013-03-11 21:32:00,34.0,-99.9,-100.00,WNW,300,7.0,-999.0,-999,0.00,,,0.00,,2013-03-12 02:32:00,
2013-03-11 21:43:00,34.0,-99.9,-100.00,WNW,300,7.0,-999.0,-999,0.00,,,0.00,,2013-03-12 02:43:00,
2013-03-11 21:52:00,34.0,-99.9,-100.00,WNW,300,7.0,-999.0,-999,0.00,,,0.00,,2013-03-12 02:52:00,
2013-03-11 22:02:00,34.0,-99.9,-100.00,West,277,5.0,-999.0,-999,0.00,,,0.00,,2013-03-12 03:02:00,
2013-03-11 22:12:00,34.0,-99.9,-100.00,West,277,5.0,-999.0,-999,0.00,,,0.00,,2013-03-12 03:12:00,
2013-03-11 22:23:00,34.0,-99.9,-100.00,West,277,5.0,-999.0,-999,0.00,,,0.00,,2013-03-12 03:23:00,
2013-03-11 22:32:00,33.0,-99.9,-100.00,WNW,302,9.0,-999.0,-999,0.00,,,0.00,,2013-03-12 03:32:00,
2013-03-11 22:43:00,33.0,-99.9,-100.00,WNW,302,9.0,-999.0,-999,0.00,,,0.00,,2013-03-12 03:43:00,
2013-03-11 22:53:00,33.0,-99.9,-100.00,WNW,302,9.0,-999.0,-999,0.00,,,0.00,,2013-03-12 03:53:00,
2013-03-11 23:03:00,33.0,-99.9,-100.00,West,280,4.0,-999.0,-999,0.00,,,0.00,,2013-03-12 04:03:00,
2013-03-11 23:13:00,33.0,-99.9,-100.00,West,280,4.0,-999.0,-999,0.00,,,0.00,,2013-03-12 04:13:00,
2013-03-11 23:23:00,33.0,-99.9,-100.00,West,280,4.0,-999.0,-999,0.00,,,0.00,,2013-03-12 04:23:00,
2013-03-11 23:33:00,33.0,-99.9,-100.00,West,274,6.0,-999.0,-999,0.00,,,0.00,,2013-03-12 04:33:00,
2013-03-11 23:43:00,33.0,-99.9,-100.00,West,274,6.0,-999.0,-999,0.00,,,0.00,,2013-03-12 04:43:00,
2013-03-11 23:53:00,33.0,-99.9,-100.00,West,274,6.0,-999.0,-999,0.00,,,0.00,,2013-03-12 04:53:00,